Location: Cicognara
(44.9500°N, 10.4667°E)
Time: 22:49:30
(UTC+00:00)

Lacrosse 5 rocket - Pass Details

Date: 20 June 2021
Orbit: 459 x 634 km, 57.0° (Epoch: 23 July)

Event Time Altitude Azimuth Distance (km) Brightness Sun altitude
Rises 20:23:22 0° 237° (WSW) 2,551 4.8 -10.7°
Reaches altitude 10° 20:25:35 10° 241° (WSW) 1,651 3.9 -10.9°
Maximum altitude 20:29:14 61° 322° (NW) 539 1.6 -11.3°
Drops below altitude 10° 20:32:48 10° 43° (NE) 1,614 3.8 -11.7°
Sets 20:34:56 0° 48° (NE) 2,487 4.7 -12.0°
